{"data":{"norad_id":58410,"intl_designator":"2023-180J","name":"STARLINK-30933","alt_names":[],"object_type":"PAYLOAD","status":"ACTIVE","operator":null,"country":"US","launch_date":"2023-11-22","launch_site_code":"AFETR","launch_vehicle":null,"mission":null,"orbit_class":"UNKNOWN","rcs_meters":null,"size_class":null,"mass_kg":null,"dimensions":null,"purposes":["comms"],"wikipedia_slug":null,"has_3d_model":false,"image_url":null,"decayed_at":null,"tle_current":{"epoch":"2026-09-20T07:18:50.719680Z","epoch_age_seconds":163922,"freshness":"FRESH","line1":"1 58410U 23180J   26263.30475370  .00001121  00000+0  50262-4 0  9993","line2":"2 58410  43.0010 247.6641 0001297 267.8355  92.2348 15.27583137159109","mean_motion":15.27583137,"eccentricity":0.0001297,"inclination_deg":43.001,"raan_deg":247.6641,"arg_perigee_deg":267.8355,"mean_anomaly_deg":92.2348,"bstar":5.0262e-5,"rev_number":15910,"period_min":94.266555130217,"perigee_km":482.14980813085,"apogee_km":483.92959736754,"semimajor_km":6861.1767027492,"source":"CELESTRAK","updated_at":"2026-09-21T09:00:33.871214Z"}}}